TimeEST,TemperatureF,Dew PointF,Humidity,Sea Level PressureIn,VisibilityMPH,Wind Direction,Wind SpeedMPH,Gust SpeedMPH,PrecipitationIn,Events,Conditions,WindDirDegrees,DateUTC
12:52 AM,7.0,-2.9,64,30.15,10.0,West,11.5,20.7,N/A,,Overcast,260,2013-01-22 05:52:00
1:52 AM,6.1,-4.0,63,30.17,8.0,West,13.8,26.5,N/A,,Overcast,270,2013-01-22 06:52:00
2:00 AM,6.8,-4.0,61,30.09,9.0,WSW,9.2,20.7,N/A,,Overcast,250,2013-01-22 07:00:00
2:52 AM,5.0,-5.1,63,30.18,10.0,WSW,10.4,19.6,N/A,,Clear,250,2013-01-22 07:52:00
3:52 AM,5.0,-4.0,66,30.18,10.0,WSW,9.2,-,N/A,,Clear,250,2013-01-22 08:52:00
4:52 AM,3.9,-4.0,70,30.19,10.0,West,10.4,17.3,N/A,,Clear,260,2013-01-22 09:52:00
5:16 AM,5.0,-4.0,66,30.12,10.0,WSW,8.1,-,N/A,,Mostly Cloudy,250,2013-01-22 10:16:00
5:38 AM,3.2,-4.0,72,30.12,10.0,West,10.4,-,N/A,,Scattered Clouds,260,2013-01-22 10:38:00
5:52 AM,3.9,-4.0,70,30.21,10.0,WSW,10.4,17.3,N/A,,Scattered Clouds,250,2013-01-22 10:52:00
6:52 AM,3.9,-4.0,70,30.24,10.0,West,9.2,18.4,N/A,,Clear,260,2013-01-22 11:52:00
7:52 AM,3.0,-4.0,73,30.26,10.0,West,6.9,-,N/A,,Scattered Clouds,260,2013-01-22 12:52:00
8:39 AM,3.2,-2.2,78,30.19,10.0,West,10.4,-,N/A,,Mostly Cloudy,260,2013-01-22 13:39:00
8:52 AM,3.9,-2.9,73,30.28,10.0,West,11.5,17.3,N/A,,Overcast,260,2013-01-22 13:52:00
9:52 AM,5.0,-2.9,70,30.30,10.0,West,11.5,20.7,N/A,,Mostly Cloudy,270,2013-01-22 14:52:00
10:52 AM,8.1,-2.0,64,30.32,4.0,West,10.4,-,0.00,Snow,Light Snow,270,2013-01-22 15:52:00
11:03 AM,8.6,-0.4,67,30.23,2.5,WSW,11.5,-,0.00,Snow,Light Snow,250,2013-01-22 16:03:00
11:05 AM,8.6,-0.4,67,30.23,4.0,WSW,11.5,-,0.00,Snow,Light Snow,250,2013-01-22 16:05:00
11:06 AM,8.6,-0.4,67,30.23,4.0,WSW,12.7,18.4,0.00,,Haze,250,2013-01-22 16:06:00
11:52 AM,9.0,-2.0,61,30.31,8.0,West,10.4,-,0.00,,Overcast,270,2013-01-22 16:52:00
12:41 PM,8.6,-2.2,62,30.21,9.0,West,9.2,18.4,N/A,,Overcast,270,2013-01-22 17:41:00
12:52 PM,8.1,-2.9,61,30.30,5.0,West,10.4,20.7,0.00,Snow,Light Snow,280,2013-01-22 17:52:00
1:01 PM,8.6,-2.2,62,30.21,7.0,West,11.5,-,0.00,,Overcast,260,2013-01-22 18:01:00
1:22 PM,8.6,-2.2,62,30.20,7.0,WSW,12.7,19.6,0.00,Snow,Light Snow,240,2013-01-22 18:22:00
1:52 PM,10.0,-0.9,61,30.27,7.0,WSW,11.5,19.6,0.00,,Overcast,250,2013-01-22 18:52:00
2:52 PM,10.0,1.0,67,30.28,8.0,WSW,11.5,20.7,N/A,,Overcast,240,2013-01-22 19:52:00
3:19 PM,8.6,-0.4,67,30.20,3.0,WSW,12.7,21.9,0.00,Snow,Light Snow,250,2013-01-22 20:19:00
3:52 PM,9.0,1.0,70,30.30,4.0,West,11.5,-,0.00,Snow,Light Snow,260,2013-01-22 20:52:00
3:54 PM,8.6,1.4,73,30.21,1.8,WSW,10.4,-,0.00,Snow,Light Snow,250,2013-01-22 20:54:00
4:13 PM,10.4,1.4,67,30.20,3.0,WSW,15.0,21.9,0.01,Snow,Light Snow,240,2013-01-22 21:13:00
4:29 PM,8.6,1.4,73,30.21,1.8,West,12.7,18.4,0.01,Snow,Light Snow,260,2013-01-22 21:29:00
4:46 PM,8.6,1.4,73,30.21,3.0,WSW,9.2,-,0.01,Snow,Light Snow,240,2013-01-22 21:46:00
4:52 PM,9.0,-0.0,67,30.30,6.0,WSW,10.4,-,0.01,,Haze,240,2013-01-22 21:52:00
5:52 PM,8.1,1.9,76,30.30,3.0,WSW,5.8,-,0.00,Snow,Light Snow,250,2013-01-22 22:52:00
6:07 PM,8.6,1.4,73,30.22,6.0,WSW,5.8,-,0.00,Snow,Light Snow,250,2013-01-22 23:07:00
6:45 PM,8.6,-0.4,67,30.23,10.0,West,8.1,-,0.00,,Scattered Clouds,260,2013-01-22 23:45:00
6:52 PM,7.0,-2.0,67,30.32,10.0,WSW,6.9,-,0.00,,Partly Cloudy,250,2013-01-22 23:52:00
7:52 PM,7.0,-2.0,67,30.32,10.0,West,6.9,-,N/A,,Clear,260,2013-01-23 00:52:00
8:52 PM,6.1,-2.0,69,30.31,10.0,West,5.8,-,N/A,,Clear,260,2013-01-23 01:52:00
9:52 PM,5.0,-2.0,73,30.32,10.0,WSW,4.6,-,N/A,,Clear,250,2013-01-23 02:52:00
10:52 PM,3.0,-2.0,80,30.32,10.0,SW,3.5,-,N/A,,Clear,230,2013-01-23 03:52:00
11:52 PM,3.9,-2.0,76,30.32,10.0,WSW,3.5,-,N/A,,Clear,240,2013-01-23 04:52:00